Volver al catálogo

DELTA 1 DEB

ActivoSSO
NORAD 10769·DEBRIS·🇺🇸 United States

Lanzado Jul 29, 1976 desde Vandenberg Space Force Base

Loading…

Próximos Pases (próximas 24 horas)

TLE

ActualizadoSource: Space-Track

Época: Sep 13, 2026, 09:43 UTC

1 10769U 76077BS  26256.40511122 -.00000048  00000-0 -11661-4 0  9990
2 10769 101.8464 226.3451 0095446 312.9165 200.6750 12.52770813290497

Sigue DELTA 1 DEB en tiempo real con AllMySat

Download on the App Store